Regional Weather Roundup
Issued by NWS Green Bay, WI

Home | Current Version | Previous Version | Graphics & Text | Print | Product List | Glossary Off
Versions: 1 2 3 4 5 6 7 8 9 10 11 12 13 14 15 16 17 18 19 20 21 22 23 24 25 26 27 28 29 30 31 32 33 34 35 36 37 38 39 40 41 42 43 44 45 46 47 48 49 50

789
ASUS43 KGRB 200111
RWRGRB

NORTH-CENTRAL AND NORTHEAST WISCONSIN REGIONAL WEATHER ROUNDUP
NATIONAL WEATHER SERVICE GREEN BAY WI
700 PM CST SUN FEB 19 2017

WIZ005-009-010>012-018-019-200200-
NORTH CENTRAL WISCONSIN

CITY           SKY/WX    TMP DP  RH WIND       PRES   REMARKS
IRONWOOD       PTCLDY    46  30  53 E8        30.00R
MANITOWISH WTR MOCLDY    35  31  87 CALM      30.01R
ARBOR VITAE    CLOUDY    42  31  66 CALM      30.02R
EAGLE RIVER    CLOUDY    35  24  63 CALM      30.02S
LAND O LAKES   PTCLDY    39  26  57 SE6       30.05R
RHINELANDER    CLOUDY    51  27  39 SE6       30.03R
PHILLIPS       CLOUDY    45  27  50 CALM      29.99R
ANTIGO         CLEAR     40  30  66 SE7       30.05S
TOMAHAWK       CLEAR     38  27  62 CALM      30.03R
MERRILL        NOT AVBL
$$

WIZ013-073-200200-
NORTHEAST WISCONSIN

CITY           SKY/WX    TMP DP  RH WIND       PRES   REMARKS
IRON MOUNTAIN  PTCLDY    42  29  59 E5        30.07R
MARINETTE      CLOUDY    36  30  79 SE6       30.11R
OCONTO         CLEAR     37  30  77 E5        30.09S
$$

WIZ017-030-035>037-045-200200-
CENTRAL WISCONSIN

CITY           SKY/WX    TMP DP  RH WIND       PRES   REMARKS
MEDFORD        CLOUDY    48  30  50 SE7       30.01R
WAUSAU         CLOUDY    46  30  53 E9        30.01S
MOSINEE        CLEAR     48  32  53 E8        30.03R
MARSHFIELD     CLOUDY    48  31  51 E6        30.00R
WISC RAPIDS    PTCLDY    51  32  48 SE7       30.03R
STEVENS POINT  CLOUDY    44  32  64 E6        30.03S
WAUPACA        CLOUDY    45  34  65 CALM      30.05R
SHAWANO        CLEAR     40  33  78 CALM      30.07R
CLINTONVILLE   PTCLDY    45  32  61 SE3       30.06R
WAUTOMA        PTCLDY    42  34  73 CALM      30.04R
$$

WIZ038-039-048-051-200200-
FOX VALLEY

CITY           SKY/WX    TMP DP  RH WIND       PRES   REMARKS
NWS GREEN BAY  PTCLDY    42  34  73 E7        30.08R
APPLETON       PTCLDY    48  32  53 VRB5      30.05R
OSHKOSH        CLOUDY    43  34  70 E5        30.06R
FOND DU LAC    CLOUDY    46  33  60 SE7       30.06R
$$

WIZ022-050-052-200200-
EAST CENTRAL WISCONSIN

CITY           SKY/WX    TMP DP  RH WIND       PRES   REMARKS
EPHRAIM        FAIR      36  31  82 SE6       30.10S
WASHINGTON ISL FAIR      37  30  77 SE3       30.11S
STURGEON BAY   PTCLDY    37  32  82 E6        30.11R
MANITOWOC      CLOUDY    37  32  82 MISG      30.11R
SHEBOYGAN      CLOUDY    37  29  72 CALM      30.10R
$$

LMZ563-521-522-541>543-200200-
LAKESHORE

STATION/POSITION TIME  TEMP    WIND        PRES    VSBY  WAVE
                       AIR SEA DIR/SP/G                  HT/PER
                 (UTC) (F)     (DEG/KT/KT) (MB)    (MI)  (FT/S)
SHEBOYGAN LKSHOR 0100   39      CALM  /  1 1019.6R
KEWAUNEE LKSHORE 0048   38      70/  1/  3 1019.0R
NORTHPORT PIER   0040   38     150/  3/  6 1020.0R
SISTER BAY LKSHO 2350   40     140/  6/  8   N/A
CHAMBERS ISLAND  0030   39      90/  5/  6 1019.0R
MENOMINEE LKSHOR 0048   36     100/  5/  7 1018.8R
$$




USA.gov is the U.S. government's official web portal to all federal, state and local government web resources and services.